Location: Unspecified
(0.0000°N, 0.0000°E)
Time: 04:33:01
(UTC+00:00)

Vanguard 1 - Pass Details

Date: 19 December 2023
Orbit: 653 x 3826 km, 34.3° (Epoch: 22 February)

Event Time Altitude Azimuth Distance (km) Brightness Sun altitude
Rises 16:59:37 0° 332° (NNW) 5,163 13.8 13.2°
Reaches altitude 10° 17:06:13 10° 359° (N) 4,917 13.4 11.7°
Maximum altitude 17:11:56 13° 23° (NNE) 5,246 13.4 10.3°
Drops below altitude 10° 17:18:46 10° 45° (NE) 6,062 13.5 8.8°
Sets 17:29:43 0° 69° (ENE) 7,717 13.9 6.3°
